Location: La Brionne
(46.1728°N, 1.7849°E)
Time: 17:52:25
(UTC+00:00)

USA 215 - Pass Details

Date: 29 October 2021
Orbit: 1099 x 1109 km, 123.0° (Epoch: 20 November)

Event Time Altitude Azimuth Distance (km) Brightness Sun altitude
Exits shadow 19:01:12 27° 39° (NE) 1,996 4.3 -24.5°
Maximum altitude 19:04:43 53° 336° (NNW) 1,337 3.8 -25.1°
Drops below altitude 10° 19:11:01 10° 262° (W) 2,962 6.5 -26.1°
Sets 19:13:33 0° 257° (WSW) 3,919 7.3 -26.6°
